When you browse on this site, cookies collect data to enhance your experience and personalize the content and advertising you see.
Visit our Privacy Policy to learn more. By continuing to use the site, you agree to this use of cookies and data.
  • en Suisse
  • Liste des pays
  • À 7 jours
  • Température de l'eau
  • Carte météo
  • Widgets météo
  • user-avatar
    Se connecter

    Météo par heure à Elbasan

    Ce jour, 18 Octobre, Vendredi

    Heure Température Précipitation Vent Pression Humidité
    00:00 +16°C° 0 mm 0 m/s 737 mmHg 78%
    01:00 +16°C° 0 mm 0 m/s 737 mmHg 79%
    02:00 +16°C° 0 mm 0 m/s 737 mmHg 79%
    03:00 +16°C° 0 mm 0 m/s 737 mmHg 79%
    04:00 +15°C° 0 mm 0 m/s 736 mmHg 79%
    05:00 +16°C° 0 mm 0 m/s 737 mmHg 77%
    06:00 +17°C° 0 mm 0 m/s 737 mmHg 74%
    07:00 +20°C° 0 mm 1 m/s 737 mmHg 70%
    08:00 +22°C° 0 mm 1 m/s 737 mmHg 63%
    09:00 +23°C° 0 mm 1 m/s 737 mmHg 55%
    10:00 +25°C° 0 mm 1 m/s 737 mmHg 48%
    11:00 +26°C° 0 mm 1 m/s 737 mmHg 46%
    12:00 +26°C° 0 mm 2 m/s 737 mmHg 44%
    13:00 +27°C° 0 mm 2 m/s 736 mmHg 42%
    14:00 +26°C° 0 mm 2 m/s 736 mmHg 48%
    15:00 +25°C° 0 mm 2 m/s 736 mmHg 54%
    16:00 +24°C° 0 mm 3 m/s 736 mmHg 60%
    17:00 +21°C° 0 mm 2 m/s 736 mmHg 68%
    18:00 +21°C° 0 mm 1 m/s 736 mmHg 76%
    19:00 +17°C° 0 mm 0 m/s 736 mmHg 84%
    20:00 +17°C° 0 mm 0 m/s 736 mmHg 84%
    21:00 +17°C° 0 mm 0 m/s 737 mmHg 85%
    22:00 +16°C° 0 mm 0 m/s 737 mmHg 85%
    23:00 +16°C° 0 mm 0 m/s 737 mmHg 85%

    Demain, 19 Octobre, Samedi

    Heure Température Précipitation Vent Pression Humidité
    00:00 +16°C° 0 mm 0 m/s 737 mmHg 85%
    01:00 +16°C° 0 mm 0 m/s 737 mmHg 85%
    02:00 +18°C° 0 mm 1 m/s 737 mmHg 84%
    03:00 +16°C° 0 mm 1 m/s 736 mmHg 84%
    04:00 +16°C° 0 mm 1 m/s 736 mmHg 83%
    05:00 +18°C° 0 mm 1 m/s 736 mmHg 81%
    06:00 +18°C° 0 mm 1 m/s 737 mmHg 78%
    07:00 +19°C° 0 mm 1 m/s 737 mmHg 75%
    08:00 +21°C° 0 mm 1 m/s 737 mmHg 68%
    09:00 +23°C° 0 mm 1 m/s 737 mmHg 61%
    10:00 +24°C° 0 mm 1 m/s 738 mmHg 53%
    11:00 +25°C° 0 mm 1 m/s 737 mmHg 52%
    12:00 +25°C° 0 mm 2 m/s 737 mmHg 50%
    13:00 +26°C° 0 mm 2 m/s 737 mmHg 49%
    14:00 +25°C° 0 mm 2 m/s 737 mmHg 53%
    15:00 +24°C° 0 mm 2 m/s 737 mmHg 58%
    16:00 +23°C° 0 mm 2 m/s 737 mmHg 63%
    17:00 +21°C° 0 mm 2 m/s 737 mmHg 70%
    18:00 +20°C° 0 mm 1 m/s 737 mmHg 78%
    19:00 +17°C° 0 mm 0 m/s 737 mmHg 85%
    20:00 +17°C° 0 mm 0 m/s 737 mmHg 86%
    21:00 +16°C° 0 mm 0 m/s 738 mmHg 86%
    22:00 +18°C° 0 mm 1 m/s 738 mmHg 86%
    23:00 +18°C° 0 mm 1 m/s 738 mmHg 86%

    Après-demain, 20 Octobre, Dimanche

    Heure Température Précipitation Vent Pression Humidité
    00:00 +18°C° 0 mm 1 m/s 738 mmHg 85%
    01:00 +18°C° 0 mm 1 m/s 738 mmHg 85%
    02:00 +18°C° 0 mm 1 m/s 738 mmHg 84%
    03:00 +16°C° 0 mm 1 m/s 738 mmHg 84%
    04:00 +16°C° 0 mm 1 m/s 738 mmHg 84%
    05:00 +18°C° 0 mm 1 m/s 738 mmHg 81%
    06:00 +18°C° 0 mm 1 m/s 738 mmHg 78%
    07:00 +19°C° 0 mm 1 m/s 738 mmHg 75%
    08:00 +21°C° 0 mm 1 m/s 738 mmHg 68%
    09:00 +23°C° 0 mm 1 m/s 739 mmHg 60%
    10:00 +25°C° 0 mm 1 m/s 739 mmHg 52%
    11:00 +25°C° 0 mm 1 m/s 739 mmHg 50%
    12:00 +26°C° 0 mm 2 m/s 739 mmHg 48%
    13:00 +27°C° 0 mm 2 m/s 738 mmHg 47%
    14:00 +26°C° 0 mm 2 m/s 738 mmHg 51%
    15:00 +25°C° 0 mm 2 m/s 738 mmHg 55%
    16:00 +24°C° 0 mm 2 m/s 738 mmHg 60%
    17:00 +22°C° 0 mm 1 m/s 738 mmHg 67%
    18:00 +21°C° 0 mm 1 m/s 738 mmHg 74%
    19:00 +17°C° 0 mm 0 m/s 739 mmHg 81%
    20:00 +17°C° 0 mm 0 m/s 739 mmHg 81%
    21:00 +17°C° 0 mm 0 m/s 739 mmHg 81%
    22:00 +19°C° 0 mm 1 m/s 739 mmHg 81%
    23:00 +19°C° 0 mm 1 m/s 739 mmHg 81%

    21 Octobre, Lundi

    Heure Température Précipitation Vent Pression Humidité
    00:00 +18°C° 0 mm 1 m/s 739 mmHg 80%
    01:00 +18°C° 0 mm 1 m/s 739 mmHg 80%
    02:00 +18°C° 0 mm 1 m/s 739 mmHg 80%
    03:00 +18°C° 0 mm 1 m/s 738 mmHg 79%
    04:00 +18°C° 0 mm 1 m/s 738 mmHg 79%
    05:00 +18°C° 0 mm 1 m/s 739 mmHg 76%
    06:00 +19°C° 0 mm 1 m/s 739 mmHg 73%
    07:00 +19°C° 0 mm 1 m/s 739 mmHg 70%
    08:00 +22°C° 0 mm 1 m/s 739 mmHg 62%
    09:00 +24°C° 0 mm 1 m/s 739 mmHg 54%
    10:00 +26°C° 0 mm 1 m/s 739 mmHg 46%
    11:00 +27°C° 0 mm 1 m/s 739 mmHg 44%
    12:00 +27°C° 0 mm 2 m/s 739 mmHg 41%
    13:00 +28°C° 0 mm 2 m/s 739 mmHg 39%
    14:00 +27°C° 0 mm 2 m/s 738 mmHg 43%
    15:00 +26°C° 0 mm 2 m/s 738 mmHg 47%
    16:00 +25°C° 0 mm 2 m/s 738 mmHg 52%
    17:00 +23°C° 0 mm 1 m/s 738 mmHg 58%
    18:00 +22°C° 0 mm 1 m/s 738 mmHg 64%
    19:00 +18°C° 0 mm 0 m/s 738 mmHg 70%
    20:00 +20°C° 0 mm 1 m/s 738 mmHg 69%
    21:00 +20°C° 0 mm 1 m/s 738 mmHg 68%
    22:00 +20°C° 0 mm 1 m/s 738 mmHg 68%
    23:00 +19°C° 0 mm 1 m/s 738 mmHg 66%

    22 Octobre, Mardi

    Heure Température Précipitation Vent Pression Humidité
    00:00 +19°C° 0 mm 1 m/s 738 mmHg 65%
    01:00 +19°C° 0 mm 1 m/s 738 mmHg 64%
    02:00 +19°C° 0 mm 1 m/s 738 mmHg 63%
    03:00 +19°C° 0 mm 1 m/s 738 mmHg 62%
    04:00 +18°C° 0 mm 1 m/s 738 mmHg 61%
    05:00 +19°C° 0 mm 1 m/s 738 mmHg 60%
    06:00 +19°C° 0 mm 1 m/s 738 mmHg 58%
    07:00 +20°C° 0 mm 1 m/s 738 mmHg 56%
    08:00 +22°C° 0 mm 1 m/s 738 mmHg 48%
    09:00 +25°C° 0 mm 1 m/s 738 mmHg 41%
    10:00 +27°C° 0 mm 1 m/s 739 mmHg 33%
    11:00 +28°C° 0 mm 1 m/s 738 mmHg 32%
    12:00 +29°C° 0 mm 2 m/s 738 mmHg 30%
    13:00 +29°C° 0 mm 2 m/s 738 mmHg 28%
    14:00 +28°C° 0 mm 2 m/s 738 mmHg 34%
    15:00 +27°C° 0 mm 2 m/s 737 mmHg 39%
    16:00 +26°C° 0 mm 1 m/s 737 mmHg 44%
    17:00 +24°C° 0 mm 1 m/s 737 mmHg 47%
    18:00 +22°C° 0 mm 1 m/s 737 mmHg 50%
    19:00 +21°C° 0 mm 1 m/s 737 mmHg 53%
    20:00 +20°C° 0 mm 1 m/s 738 mmHg 52%
    21:00 +20°C° 0 mm 1 m/s 738 mmHg 51%
    22:00 +20°C° 0 mm 1 m/s 738 mmHg 50%
    23:00 +20°C° 0 mm 1 m/s 738 mmHg 50%

    23 Octobre, Mercredi

    Heure Température Précipitation Vent Pression Humidité
    00:00 +20°C° 0 mm 1 m/s 738 mmHg 49%
    01:00 +18°C° 0 mm 2 m/s 738 mmHg 49%
    02:00 +18°C° 0 mm 2 m/s 738 mmHg 49%
    03:00 +18°C° 0 mm 2 m/s 738 mmHg 49%
    04:00 +18°C° 0 mm 2 m/s 738 mmHg 49%
    05:00 +18°C° 0 mm 2 m/s 738 mmHg 49%
    06:00 +18°C° 0 mm 2 m/s 738 mmHg 49%
    07:00 +19°C° 0 mm 2 m/s 738 mmHg 49%
    08:00 +21°C° 0 mm 2 m/s 738 mmHg 43%
    09:00 +25°C° 0 mm 1 m/s 738 mmHg 37%
    10:00 +27°C° 0 mm 1 m/s 738 mmHg 31%
    11:00 +28°C° 0 mm 1 m/s 738 mmHg 29%
    12:00 +29°C° 0 mm 2 m/s 738 mmHg 27%
    13:00 +29°C° 0 mm 2 m/s 738 mmHg 25%
    14:00 +28°C° 0 mm 2 m/s 738 mmHg 30%
    15:00 +27°C° 0 mm 1 m/s 737 mmHg 35%
    16:00 +26°C° 0 mm 1 m/s 737 mmHg 39%
    17:00 +24°C° 0 mm 1 m/s 737 mmHg 42%
    18:00 +22°C° 0 mm 1 m/s 737 mmHg 45%
    19:00 +21°C° 0 mm 1 m/s 737 mmHg 47%
    20:00 +21°C° 0 mm 1 m/s 738 mmHg 47%
    21:00 +20°C° 0 mm 1 m/s 738 mmHg 46%
    22:00 +19°C° 0 mm 2 m/s 738 mmHg 46%
    23:00 +19°C° 0 mm 2 m/s 738 mmHg 46%
    Voir plus